User: anonymous   Login
Location: Unspecified
(0.0000°N, 0.0000°E)
Time: 09:22:29
(UTC+00:00)
Language:

COSMOS 2484 - Orbit

View from above orbital plane
View from above orbital plane
View from above satellite
View from above satellite

Ground track
Ground track

The orbit data is extracted from the following two-line orbital elements,

1 39059U 13001C   24205.92522985  .00000047  00000-0  26775-3 0  9997
2 39059  82.5028 292.9498 0027751 106.5474 253.8657 12.42900818522432
Epoch (UTC): 23 July 2024 22:12:19
Eccentricity: 0.0027751
inclination: 82.5028°
perigee height: 1472 km
apogee height: 1516 km
right ascension of ascending node: 292.9498°
argument of perigee: 106.5474°
revolutions per day: 12.42900818
mean anomaly at epoch: 253.8657°
orbit number at epoch: 52243

The dashed part of the orbit path shows where the satellite is in the earth's shadow,  

DLR